Theta_e
308 308 308 308 309 309 309 310 310 310 311 311 311 311 310 311 311 311 311 311 311 311 310 310 310 310 310 310 309 309 309 310 311 311 312 314 314 315 314 311 312 311 312 312 312 312 313 313 313 313 315 317 317 318 317 317 317 318 328 330 325 328 322 317 321 321 321 319 316 316 317 317 317 316 316 317 316 317 317 316 317 316 317 317 316 318 318 319
308 308 308 308 309 309 309 310 310 310 310 310 310 310 311 311 311 311 311 311 310 310 310 310 310 310 310 310 309 310 309 310 310 310 313 316 315 314 314 312 312 312 312 312 312 313 314 314 314 314 316 316 317 318 317 317 316 320 327 327 328 328 317 315 318 316 319 318 316 316 316 316 317 316 315 316 316 316 317 317 317 316 316 316 316 317 317 319
308 307 308 308 308 309 309 309 310 310 310 310 310 310 310 310 310 310 310 310 310 310 310 310 311 311 310 310 309 309 309 309 310 310 313 316 314 313 312 312 312 312 312 312 313 315 314 315 314 314 315 316 317 317 318 319 316 319 326 328 325 321 316 316 316 316 318 317 316 316 316 316 316 315 315 316 315 315 316 317 316 316 316 315 316 316 316 316
308 307 308 308 308 309 309 309 310 310 310 310 310 310 310 310 310 310 310 310 310 310 311 311 311 310 310 310 309 309 310 310 310 310 313 314 312 312 312 312 312 312 312 312 313 315 315 315 314 314 314 315 316 317 318 318 316 317 325 329 320 316 319 317 315 316 316 316 317 316 316 316 316 315 315 315 315 315 315 316 316 316 315 315 315 315 315 315
308 308 308 308 308 309 309 309 309 310 310 310 310 310 310 310 310 310 311 310 311 310 310 311 311 310 310 310 309 309 311 312 313 312 313 313 312 312 312 312 312 312 312 312 312 314 315 314 314 314 314 314 315 316 317 317 317 317 318 320 316 316 320 317 315 317 316 317 317 315 316 316 316 316 316 315 317 317 315 316 316 316 316 316 315 315 315 315
308 308 308 308 309 309 309 309 309 310 310 310 310 310 310 310 310 311 310 311 311 310 311 311 310 310 309 310 309 310 312 313 314 315 314 313 312 312 312 312 313 313 313 312 312 313 314 314 314 314 314 315 315 315 316 316 317 318 315 315 316 317 318 316 316 316 317 317 316 316 316 316 316 316 317 315 316 318 317 317 317 317 317 317 316 315 315 315
308 308 308 309 308 309 309 309 309 310 310 310 310 310 310 310 311 311 311 311 311 310 311 310 311 310 309 309 309 309 311 313 314 315 314 312 312 312 312 313 313 313 313 313 313 313 314 314 314 314 314 315 315 314 316 316 315 318 317 315 315 316 316 316 316 316 316 316 316 316 316 316 316 316 316 316 316 317 318 317 317 317 317 317 317 316 316 316
308 308 308 308 309 309 309 309 309 310 310 310 310 310 310 311 311 311 311 311 310 310 310 310 311 310 309 309 309 310 310 312 314 314 313 312 312 312 312 312 313 313 313 314 314 314 314 315 314 314 315 314 315 316 316 315 314 316 317 315 315 315 315 315 315 315 316 316 316 316 316 316 317 316 316 316 317 316 317 317 316 317 317 317 317 316 316 316
308 308 308 308 309 309 309 309 309 310 310 310 310 310 310 311 311 311 311 310 310 310 310 311 310 310 310 309 309 312 312 312 314 313 312 312 312 312 312 312 312 312 313 314 314 315 315 315 315 315 315 315 315 315 315 315 315 315 316 315 315 315 315 315 314 315 315 316 316 316 316 316 316 317 317 317 317 316 316 316 317 317 317 317 316 316 316 316
308 308 308 308 308 309 309 309 309 310 309 310 310 310 310 310 311 311 310 310 310 310 310 310 310 310 309 309 310 312 314 315 314 313 312 312 312 312 312 312 312 312 313 313 314 316 315 315 316 316 316 316 316 315 315 317 316 316 316 316 315 315 315 315 315 315 315 315 315 317 317 316 316 316 318 317 316 317 317 317 316 317 316 316 316 316 316 316
308 308 308 308 308 309 309 309 309 309 309 310 310 310 310 310 311 311 310 310 309 309 310 310 310 310 309 309 310 312 316 315 314 313 312 312 312 312 312 312 312 312 313 313 313 315 315 316 316 316 316 316 316 316 316 317 317 316 316 316 315 315 315 315 315 315 315 316 315 316 315 315 315 316 318 317 317 317 316 317 316 316 317 316 316 316 316 316
308 308 308 308 308 309 309 309 309 309 309 309 310 310 310 311 311 310 310 310 309 309 310 310 310 310 309 309 310 313 315 314 312 313 312 313 312 312 312 312 313 313 313 313 313 314 315 316 316 316 315 315 316 316 316 317 316 316 317 318 316 315 317 315 315 315 315 317 316 315 315 316 317 317 318 316 316 318 316 317 317 316 317 316 316 316 316 316
308 308 308 308 308 309 309 309 309 309 309 309 310 310 310 310 310 310 310 309 309 309 309 310 310 309 308 309 310 312 314 313 311 312 313 313 312 312 312 313 314 314 314 313 313 313 314 315 315 316 316 315 316 315 316 316 316 317 316 319 318 316 319 317 314 315 315 316 316 315 315 321 321 316 316 316 316 317 317 316 317 317 317 316 316 316 316 316
308 308 308 308 308 308 309 309 309 309 309 309 310 310 309 309 308 308 309 309 309 308 309 310 309 309 308 311 313 311 313 313 311 312 313 313 312 312 313 314 315 314 315 314 313 313 314 315 315 316 317 316 315 315 317 316 316 318 315 320 323 319 321 319 314 315 316 316 316 315 316 322 321 315 316 317 316 317 317 316 317 317 316 316 316 316 316 316
308 308 308 308 308 308 309 309 309 309 309 309 308 308 308 307 307 307 308 308 308 307 309 309 309 309 308 311 313 312 313 312 311 313 312 312 312 312 313 315 315 314 315 314 314 314 314 314 315 316 316 315 316 317 318 317 317 319 317 322 323 320 322 320 314 315 317 316 315 316 317 321 320 315 316 317 316 317 316 317 316 317 317 316 317 317 317 317
307 308 308 308 308 308 308 308 308 307 307 307 306 307 306 306 306 307 307 307 307 307 308 308 308 310 310 311 313 313 313 312 312 312 312 312 312 312 313 314 315 315 314 315 315 314 314 315 315 316 316 316 319 322 323 321 321 321 320 323 323 320 321 320 316 314 316 317 315 315 317 321 319 315 317 317 317 317 317 317 317 316 317 317 317 317 317 317
307 307 307 307 307 307 307 307 307 306 306 306 306 306 306 306 306 306 306 306 307 307 308 309 308 309 311 312 313 313 312 313 312 312 312 312 312 313 313 315 316 315 315 316 315 315 316 316 316 316 316 317 320 325 326 320 320 322 318 320 324 322 320 320 319 315 314 317 317 316 316 320 319 314 315 317 317 317 317 317 317 317 317 317 318 318 318 318
306 306 306 306 306 306 306 306 306 306 307 307 307 307 306 307 307 307 307 306 307 307 308 310 309 310 311 311 313 313 312 313 312 312 312 312 313 313 313 315 315 316 316 316 316 316 316 314 317 320 317 316 317 324 332 326 323 326 320 319 323 320 319 321 320 317 316 317 317 318 317 319 320 315 314 315 316 316 317 317 317 317 317 317 318 317 318 318
307 307 307 307 307 307 307 307 307 307 307 307 306 306 306 306 306 307 307 307 307 308 310 310 309 312 313 311 312 313 312 313 312 312 312 313 314 313 314 315 314 316 315 316 317 315 316 316 318 323 320 317 317 320 331 329 323 327 326 324 323 319 317 318 317 315 315 317 317 318 318 318 319 317 314 315 316 315 316 317 317 317 317 317 317 317 318 318
307 308 307 307 308 308 308 308 308 307 306 306 306 306 306 307 309 309 307 307 309 310 312 311 310 313 313 310 313 314 312 312 312 312 312 313 314 314 315 315 315 316 315 319 319 313 320 323 321 328 327 321 320 319 323 322 318 321 324 323 321 320 317 317 318 314 312 315 319 319 318 317 317 316 313 313 315 313 313 315 316 317 317 317 318 317 318 318
308 308 308 308 308 308 308 308 307 306 306 306 306 307 307 308 312 311 307 307 309 311 313 311 310 313 313 311 313 314 312 312 312 311 312 313 314 314 315 316 316 316 316 318 317 316 323 325 325 332 328 320 319 319 318 319 319 321 322 322 322 323 319 316 317 316 312 314 319 320 317 316 316 314 312 312 313 313 313 314 315 316 317 317 317 317 317 317
311 309 308 308 308 308 308 307 306 306 305 306 306 308 309 309 311 310 307 308 308 310 312 311 311 313 313 313 313 313 312 313 313 312 312 312 314 314 315 317 317 318 317 315 318 321 322 325 328 325 318 315 317 318 319 321 323 324 323 323 324 323 318 316 318 318 315 315 320 321 318 316 315 314 312 310 312 314 314 315 315 316 316 316 317 317 317 317
315 314 312 310 308 307 307 307 306 306 305 305 306 309 311 311 311 310 309 310 309 310 310 311 312 312 312 313 313 313 312 313 314 313 312 312 313 314 315 316 316 318 318 319 323 322 321 325 324 316 313 317 318 318 322 321 321 325 324 323 324 323 319 318 318 317 316 315 318 320 319 317 315 315 316 312 311 314 314 314 315 315 315 316 316 316 316 316
316 316 315 314 312 309 308 306 306 306 305 305 307 310 310 310 311 310 310 312 313 312 310 309 311 311 312 312 312 314 314 313 313 313 312 312 313 314 314 314 315 317 318 321 323 322 322 321 316 313 317 322 318 317 323 320 317 324 326 325 326 323 319 318 318 318 319 319 319 319 319 323 324 322 323 320 314 313 314 314 314 315 315 316 316 315 316 316
318 317 317 317 316 314 310 308 307 306 305 305 307 309 309 309 310 309 310 312 314 313 311 310 310 310 311 312 312 314 315 314 314 313 311 312 313 314 315 313 314 317 318 319 319 320 321 316 314 316 318 322 320 318 324 324 318 318 322 323 323 322 321 322 322 319 320 322 320 317 317 327 332 325 323 322 317 315 315 313 315 318 317 316 317 316 316 316
319 318 318 318 318 317 314 313 311 307 306 305 306 308 307 308 309 309 311 315 315 313 311 311 310 310 311 312 312 312 313 314 315 314 311 312 313 314 315 314 314 315 316 316 316 317 317 314 318 323 321 322 321 318 320 324 320 315 318 321 323 326 326 328 327 319 319 321 318 316 317 323 323 316 316 317 315 315 313 311 313 316 317 317 317 317 317 317
321 319 318 319 318 318 318 318 315 312 310 308 307 307 307 308 309 309 312 317 317 314 311 311 310 310 312 312 311 312 313 315 315 313 312 313 314 313 315 315 314 313 313 315 317 317 316 316 320 325 325 323 321 319 318 321 322 318 320 323 325 326 324 326 328 321 321 322 321 321 319 319 319 316 316 316 314 314 313 314 313 311 314 315 315 317 317 318
321 320 319 319 319 320 320 319 318 317 315 313 309 306 307 309 309 310 315 315 315 314 312 310 310 311 312 311 311 312 314 315 315 314 313 314 315 313 314 314 315 317 313 315 321 317 315 319 321 322 324 323 323 323 321 320 322 321 322 324 327 328 326 331 330 325 323 319 319 324 318 317 323 325 323 317 316 317 317 320 316 310 312 313 313 317 318 319
321 320 320 319 319 320 320 320 320 319 318 314 309 307 308 309 309 313 317 313 311 313 312 310 311 312 312 312 312 312 313 314 315 315 313 314 315 313 314 313 314 316 312 314 324 320 314 317 319 320 323 324 323 323 322 324 322 319 319 324 329 330 329 332 329 325 324 318 318 325 319 314 318 324 322 315 317 322 320 321 316 311 313 314 315 317 318 320
320 320 320 320 320 319 319 320 320 320 320 314 308 308 309 311 314 314 311 311 315 315 309 309 312 312 312 312 312 311 313 314 314 314 313 313 314 313 314 313 312 318 319 318 323 320 313 312 314 317 319 319 319 317 317 320 317 316 323 328 329 331 333 333 330 324 320 318 321 325 321 314 315 322 324 319 321 323 319 320 320 317 317 316 318 319 319 320
319 320 320 320 320 319 319 319 319 320 320 314 308 309 311 316 320 314 308 311 319 316 309 310 312 312 312 313 313 312 313 314 313 313 314 314 314 313 313 313 314 322 324 321 321 319 316 315 314 314 314 313 316 317 315 317 318 320 329 329 322 328 333 330 328 323 316 317 321 323 321 315 315 322 324 321 323 321 319 322 324 323 320 318 319 320 318 319
318 319 320 320 320 320 319 319 319 319 320 316 309 310 316 318 317 316 313 312 317 316 313 313 313 312 312 312 313 312 315 316 312 313 316 316 316 315 314 315 317 320 319 319 321 319 320 321 316 313 313 314 318 321 317 320 324 324 324 322 315 319 324 323 324 323 320 320 319 319 320 317 315 318 320 320 322 321 319 319 320 321 320 318 318 318 317 317
317 317 318 319 319 320 319 319 319 319 319 317 312 314 321 318 314 317 318 314 314 316 315 314 313 312 312 313 313 312 315 317 314 313 315 316 316 314 315 317 316 318 321 321 320 320 321 322 317 314 315 314 317 320 317 320 324 321 318 319 318 318 319 319 320 320 321 322 319 317 318 320 320 320 321 321 318 317 315 315 318 319 318 318 317 317 318 317
315 316 317 318 318 319 319 319 319 319 319 318 316 318 320 317 316 317 316 315 316 316 316 315 313 312 312 313 313 312 314 315 314 314 316 315 316 315 315 315 313 317 324 320 317 320 320 321 320 317 315 316 316 317 318 321 321 319 319 319 319 322 322 321 321 320 321 322 319 315 317 324 325 322 322 318 313 314 315 315 318 317 317 318 317 317 318 317
314 315 316 317 318 318 318 319 320 319 318 318 318 318 317 315 318 319 316 318 320 317 316 314 312 312 312 313 313 312 313 316 314 315 317 316 316 317 316 315 312 316 321 316 316 318 316 320 323 316 313 316 317 314 315 319 318 317 320 318 317 321 321 320 323 325 325 321 318 318 322 326 323 320 319 315 313 315 314 315 317 316 317 316 316 318 317 316
314 314 314 315 317 318 318 319 319 319 318 317 317 317 316 316 320 321 319 320 321 317 314 313 314 314 313 314 315 311 313 318 316 314 317 315 315 316 316 316 313 312 315 314 317 318 316 321 321 313 312 314 314 313 312 314 316 317 318 317 320 322 319 318 320 318 317 316 317 318 320 320 317 316 317 315 315 315 313 312 314 315 317 315 315 317 316 316
313 314 313 314 315 317 318 318 318 318 318 317 317 317 316 316 319 320 320 320 318 315 315 315 316 316 313 314 317 314 314 319 316 314 317 316 316 316 315 315 313 312 313 311 316 322 321 322 318 314 317 314 311 313 313 312 315 319 320 317 317 320 321 324 322 317 316 315 317 317 315 315 314 315 318 318 315 316 317 315 313 314 316 315 316 316 315 316
312 313 313 314 314 315 316 317 317 318 317 316 316 316 315 316 318 318 320 321 317 316 317 318 317 316 315 314 317 316 315 317 316 315 317 315 316 317 314 315 314 312 312 310 313 319 319 319 316 314 317 316 314 315 315 314 314 318 320 317 318 322 323 324 321 318 318 316 319 320 315 314 314 312 316 317 315 317 318 318 317 315 313 314 315 315 315 316
311 311 312 313 314 314 314 316 317 317 316 315 315 315 315 315 316 316 318 319 319 319 319 320 319 317 316 316 317 317 314 316 316 316 316 315 315 316 313 314 315 312 310 311 313 318 318 317 316 314 315 316 315 316 317 318 316 317 316 314 319 325 324 323 320 318 320 316 316 318 314 314 315 313 314 315 316 317 316 320 321 313 312 315 316 315 316 316
310 311 312 312 313 314 313 314 315 315 315 314 313 313 314 314 313 315 316 317 319 320 320 323 323 319 317 317 317 317 315 316 316 315 316 315 315 316 313 313 316 314 311 310 313 316 316 314 315 315 314 315 317 317 317 318 318 318 318 317 318 318 319 322 320 319 320 318 316 315 313 314 314 315 315 315 317 317 315 320 319 312 312 316 316 315 317 317
309 310 311 311 311 313 313 313 313 313 314 314 312 312 313 313 313 314 315 316 316 317 318 322 322 321 321 319 318 318 316 316 316 316 316 314 315 317 315 313 315 315 313 312 314 316 314 316 320 319 316 317 321 320 315 315 317 317 317 318 317 316 318 319 318 318 319 320 322 318 313 314 313 314 316 316 318 318 314 314 314 313 314 316 316 316 317 318
309 309 310 311 311 312 313 313 312 312 313 314 313 313 314 314 315 314 314 315 316 316 316 317 316 319 323 321 321 322 318 316 316 316 316 314 315 318 316 314 314 315 314 314 315 314 314 318 322 321 318 317 319 318 313 313 316 316 316 316 315 316 318 318 319 321 319 320 324 320 315 314 314 318 319 316 317 317 315 314 314 316 316 316 317 318 318 318
308 308 309 311 311 312 313 313 312 312 313 313 313 313 314 314 315 315 315 315 315 316 316 316 317 318 319 318 319 321 319 318 318 317 318 317 316 316 315 313 314 314 314 316 316 313 314 317 317 317 318 318 319 320 317 315 317 317 318 317 316 317 319 320 324 325 323 321 320 317 317 314 316 325 321 313 314 316 315 317 316 316 317 317 317 318 317 318
306 307 309 310 311 312 312 313 313 312 312 313 313 313 314 314 315 315 316 315 315 316 316 316 317 317 317 315 316 319 318 318 319 318 319 319 318 315 312 312 315 316 315 317 317 314 314 318 317 316 317 318 319 321 319 317 317 318 322 321 318 318 318 318 321 320 320 323 320 318 317 313 318 328 321 314 319 317 314 316 315 316 317 316 317 317 317 317
305 305 306 308 311 313 312 312 312 312 312 312 313 314 313 314 314 315 315 315 315 315 316 316 316 316 317 316 316 317 317 317 319 318 318 320 319 315 311 311 314 315 313 314 314 313 318 322 317 315 316 315 318 321 321 320 318 318 322 322 318 318 317 316 318 317 317 321 320 317 316 313 315 320 319 321 326 321 316 316 316 316 317 316 317 317 317 317
305 305 305 305 308 310 311 311 310 311 312 312 313 313 313 314 314 314 315 315 315 314 315 316 315 315 317 317 316 316 315 315 317 317 317 319 320 316 311 310 311 311 311 311 311 314 321 321 316 314 315 314 318 323 323 321 319 317 319 319 317 318 317 316 318 318 315 316 316 315 316 315 314 314 315 319 324 323 320 317 315 317 316 316 317 316 317 317
304 305 305 305 307 308 309 310 309 309 311 312 312 312 313 313 314 314 314 315 315 315 314 315 315 316 317 316 316 317 316 315 315 315 314 315 317 316 313 311 311 310 311 310 311 317 321 318 316 316 316 316 319 321 318 317 317 317 317 318 317 317 318 317 316 316 315 315 315 315 315 315 315 313 313 316 319 319 316 313 314 317 315 315 316 316 316 316
302 304 304 305 307 306 306 309 309 309 310 311 312 312 312 313 313 314 314 314 314 314 315 316 316 316 316 316 316 317 316 316 315 314 314 314 315 316 315 314 312 309 310 310 311 318 322 319 317 317 318 318 317 317 318 317 318 317 316 316 316 316 317 317 316 315 316 316 315 315 316 316 314 313 314 316 316 314 313 312 314 315 315 315 315 315 315 315
301 302 303 305 306 306 305 306 308 309 309 310 311 311 312 313 313 313 314 314 314 314 314 316 315 315 316 316 316 316 316 316 316 315 315 314 315 315 316 316 312 308 310 313 312 314 319 319 317 316 317 317 315 315 317 317 317 317 317 317 318 317 316 315 316 315 316 316 315 315 316 316 314 313 313 314 314 312 312 313 314 313 314 315 314 315 315 316
300 301 302 304 305 305 304 305 306 308 308 308 310 310 310 311 312 312 313 314 314 314 314 315 315 315 315 315 316 316 315 316 317 316 315 315 315 316 316 317 315 310 310 314 314 313 315 316 314 315 317 317 316 315 316 316 316 317 317 317 318 317 316 314 314 315 315 316 315 315 316 315 314 313 313 313 313 313 312 313 313 314 314 314 314 315 316 316
300 301 302 302 303 304 305 305 305 307 307 307 308 309 309 310 311 311 312 312 313 314 314 314 314 315 315 315 315 316 315 315 315 315 315 315 315 316 315 315 316 315 313 313 314 314 315 313 312 313 317 318 316 316 316 316 316 315 316 317 316 316 316 315 315 315 315 315 316 316 316 315 314 313 313 313 312 312 312 312 313 314 314 314 315 315 315 316
298 300 301 301 302 303 305 305 306 306 306 306 307 308 308 309 309 310 311 311 311 313 313 313 314 314 314 314 314 315 314 314 315 314 314 315 314 315 315 314 314 315 315 313 313 314 314 314 313 314 316 317 316 317 317 316 316 317 317 316 315 315 316 315 316 316 315 315 316 315 315 314 314 314 314 314 313 312 312 313 313 314 314 314 314 315 315 315
Wind_Speed
18 19 19 18 18 18 19 20 20 20 19 18 18 17 15 14 13 12 12 11 11 11 11 11 11 12 12 11 9 8 8 8 8 8 8 8 8 7 5 6 6 7 7 8 7 7 7 6 6 9 9 6 4 5 6 5 3 2 2 4 1 1 1 2 3 4 6 5 6 12 13 9 6 6 10 8 8 11 8 7 8 8 8 6 4 7 8 10
18 19 19 18 18 19 19 19 19 18 18 17 17 16 15 14 13 12 12 12 11 11 11 11 12 12 12 10 9 8 7 7 8 9 9 7 7 6 5 6 7 7 8 8 9 8 8 6 5 6 7 5 5 6 5 5 5 2 2 4 2 3 1 4 1 3 6 8 11 14 13 8 9 12 11 6 6 10 7 6 8 8 9 8 9 9 8 10
18 20 20 19 19 19 19 19 18 17 17 16 16 15 14 14 13 13 12 12 12 11 11 11 12 12 11 10 9 7 6 7 8 9 10 7 6 7 6 7 7 7 8 9 11 10 8 5 5 7 6 5 5 6 6 5 5 2 3 3 3 5 3 6 6 4 5 15 14 12 12 6 9 14 12 6 6 8 8 9 9 10 12 12 13 13 11 11
19 20 21 21 20 18 18 18 18 17 17 16 16 15 14 14 13 13 13 12 12 12 11 12 12 12 11 9 8 7 6 5 6 9 9 6 6 7 7 6 7 7 8 10 10 9 7 6 5 7 6 5 6 7 6 5 5 2 3 4 4 4 3 4 5 5 6 15 16 12 9 6 10 14 11 8 6 4 11 15 13 13 15 16 16 16 14 13
20 21 22 21 20 19 18 18 18 18 17 16 16 15 14 14 14 13 12 12 12 12 12 12 12 12 10 9 8 7 7 2 4 9 8 7 7 7 7 7 7 7 8 9 8 8 9 7 5 4 4 3 6 6 5 7 6 2 2 4 2 4 3 1 2 5 6 11 14 11 8 8 10 10 11 10 6 5 11 17 16 13 14 15 17 18 17 16
20 22 23 23 21 19 18 18 17 17 17 16 16 15 15 14 13 13 12 12 12 12 12 12 13 12 10 9 8 8 8 2 2 8 9 8 8 8 9 8 8 7 8 8 7 9 9 7 4 3 2 2 6 5 4 9 7 3 1 4 6 4 5 2 3 5 5 10 11 7 6 10 9 6 9 11 8 5 5 9 11 13 13 13 15 17 18 17
20 20 22 23 22 21 19 18 17 17 16 15 15 15 15 14 13 13 13 12 12 12 12 12 13 12 10 9 8 8 8 3 1 6 10 10 10 11 10 9 9 8 8 8 8 9 8 6 5 5 2 1 5 5 5 8 6 4 1 2 5 5 6 4 4 6 5 8 8 6 7 8 7 4 6 11 13 9 5 5 5 7 11 14 14 15 15 14
20 19 20 21 22 21 20 18 17 16 16 15 15 15 14 14 13 13 13 12 12 12 12 13 13 12 10 9 7 5 8 6 1 5 11 12 12 12 11 10 9 8 8 9 9 8 6 5 6 6 2 1 5 6 5 5 2 3 2 3 5 4 4 3 4 6 4 5 5 5 5 4 5 4 5 11 14 13 11 9 7 5 10 14 14 14 13 13
20 20 20 21 21 21 20 18 17 16 16 15 15 14 14 13 13 13 13 12 12 12 13 13 13 13 10 9 6 3 6 7 3 6 12 13 13 13 11 10 9 8 7 8 8 6 6 4 4 5 1 2 7 6 4 4 0 1 6 6 6 4 4 4 4 5 3 2 2 2 1 2 4 3 7 13 14 16 15 12 11 9 10 13 13 14 13 12
20 21 21 21 21 20 19 18 17 16 15 15 15 14 14 13 13 12 12 12 12 12 13 13 14 13 11 9 6 3 4 6 6 8 13 13 13 12 10 9 8 8 8 9 9 7 7 4 2 3 2 2 6 4 3 4 2 5 11 9 8 6 4 4 2 4 4 1 1 2 1 1 4 2 6 11 10 14 18 14 13 13 13 14 14 15 14 14
20 21 21 21 20 20 19 18 17 16 15 15 14 14 13 13 12 12 12 12 12 12 13 13 13 12 10 9 7 5 3 6 8 10 13 13 12 10 9 8 7 8 9 10 9 8 8 4 3 4 2 2 4 4 5 6 6 12 14 8 5 4 3 3 3 5 4 1 1 1 2 1 3 2 10 13 7 11 18 18 16 15 15 15 15 16 16 17
21 21 21 21 20 19 19 17 16 15 15 14 13 13 12 12 12 12 12 12 12 12 13 13 13 12 10 9 10 6 2 5 9 11 14 13 11 9 8 7 7 8 10 10 9 8 8 4 4 4 3 5 4 3 5 6 8 12 10 5 1 3 2 4 5 5 4 1 2 2 3 3 2 8 16 14 8 9 15 19 18 17 16 15 16 17 17 18
21 21 20 20 20 19 18 16 16 15 14 13 12 12 11 11 12 12 12 12 12 13 13 13 13 12 10 7 9 7 4 6 10 12 14 13 12 9 7 7 7 9 9 9 9 8 8 6 5 5 6 6 4 4 6 6 8 6 4 4 2 5 4 7 5 5 4 2 2 2 1 6 5 14 18 12 11 11 14 18 19 18 17 16 15 17 17 17
21 21 20 20 19 18 17 15 15 14 13 12 11 11 11 11 11 12 12 12 13 13 13 14 13 12 10 5 5 8 6 8 11 13 14 13 12 9 7 7 7 8 8 7 8 7 8 8 6 7 7 7 8 9 6 4 4 3 2 2 3 2 4 6 4 7 4 2 3 4 1 7 7 13 13 8 12 13 15 18 17 17 16 16 16 16 18 18
21 22 21 20 18 17 16 15 14 14 13 12 12 12 11 11 11 12 12 12 12 13 13 14 13 11 8 4 3 7 9 10 11 13 13 12 11 9 8 8 7 8 7 7 8 7 8 8 7 6 8 9 10 8 3 3 2 2 3 3 3 3 3 6 2 9 5 3 4 4 1 7 8 10 7 4 12 13 15 16 15 17 16 17 17 17 19 19
21 21 20 19 18 16 15 15 14 14 13 13 13 12 12 11 11 12 12 12 12 12 12 12 12 9 5 3 5 8 10 12 13 13 13 12 11 9 9 8 8 8 8 8 8 9 9 8 7 7 8 7 6 5 4 4 4 3 3 2 2 3 2 4 2 5 5 3 2 2 2 4 5 4 1 4 10 12 13 14 15 17 17 18 19 19 20 20
20 19 18 17 16 15 14 14 14 14 13 13 13 13 13 12 12 12 12 13 12 12 12 10 11 9 3 3 6 9 12 13 14 15 14 13 11 10 10 9 9 9 9 9 8 9 9 7 7 5 3 2 3 5 5 3 3 3 1 1 3 3 4 2 3 3 4 5 2 2 2 6 8 9 8 6 8 11 13 15 17 17 17 18 19 21 23 23
20 19 18 17 16 15 14 14 14 14 14 15 14 13 13 13 13 13 13 14 13 12 10 9 11 7 5 7 8 10 13 13 14 15 15 14 12 12 11 10 10 10 10 9 7 7 6 4 5 3 2 2 2 5 4 2 4 3 2 2 3 2 3 3 3 3 3 3 2 2 3 9 11 14 18 16 14 15 18 20 21 20 20 20 20 23 25 27
19 18 18 17 16 17 16 15 15 15 16 16 15 15 14 13 12 12 14 15 14 10 5 10 14 5 2 11 12 10 14 14 13 15 16 15 13 13 12 10 11 10 7 5 3 4 4 3 4 3 1 2 2 5 6 7 7 6 6 5 3 2 1 3 2 2 2 3 4 5 6 9 10 12 17 22 20 18 23 25 25 25 24 23 23 25 27 29
17 17 17 17 16 17 16 17 16 16 18 17 18 18 15 13 9 6 12 16 15 7 0 12 18 4 2 13 17 12 13 14 14 17 17 16 15 13 12 11 9 5 3 3 2 1 3 4 2 3 5 6 6 6 7 5 6 7 5 4 4 4 1 3 2 4 1 2 5 7 6 8 10 10 15 25 23 15 20 23 26 28 27 27 26 27 30 31
15 15 16 16 16 16 16 17 17 17 18 18 20 17 12 12 7 4 11 13 14 7 0 11 18 6 2 10 16 14 13 12 14 18 18 17 16 13 10 9 5 2 1 4 5 1 4 4 3 6 7 7 6 6 6 4 6 5 5 5 2 2 2 3 2 5 3 1 5 4 5 10 11 10 15 21 18 15 20 21 25 29 29 29 28 29 32 32
14 14 14 14 15 15 16 17 18 19 19 19 21 14 10 13 9 9 12 8 11 11 3 11 15 8 5 8 13 13 11 9 10 16 18 18 17 11 9 7 4 3 2 4 6 4 4 1 7 8 6 4 3 5 8 6 6 5 4 5 2 1 2 2 3 5 2 2 4 5 5 10 12 10 14 18 17 23 28 25 26 29 28 29 29 31 33 33
15 14 14 14 13 14 15 16 17 19 19 20 20 11 9 12 9 12 12 4 7 13 9 10 12 10 9 10 14 14 10 7 8 16 19 19 17 11 10 8 4 4 2 4 5 4 2 4 9 8 4 7 5 5 8 6 4 4 4 5 1 3 1 2 4 4 1 1 2 4 5 10 11 7 10 19 24 29 31 27 27 28 28 30 31 32 33 33
15 16 15 14 14 13 14 16 17 18 19 20 19 10 9 11 9 12 10 2 2 10 13 13 11 11 10 9 14 13 9 7 7 15 20 20 17 11 9 8 5 4 3 5 8 6 4 6 4 4 5 7 5 4 7 5 2 2 3 6 3 2 2 3 2 2 3 4 2 3 5 7 7 5 6 11 12 18 23 23 25 27 28 31 32 31 31 31
13 14 15 15 13 12 13 14 15 17 19 20 18 11 8 9 8 9 7 2 2 4 9 13 12 11 12 9 12 13 9 6 5 13 21 21 17 10 6 8 6 3 6 7 7 5 6 5 2 6 4 6 7 3 3 5 1 4 1 5 6 5 5 3 2 4 5 5 3 3 4 6 5 5 7 7 5 8 12 13 18 23 24 27 29 28 27 27
11 12 14 15 14 13 12 11 12 14 17 18 17 13 8 6 7 7 5 4 2 2 5 10 10 10 13 11 13 13 6 2 4 14 22 20 16 10 5 5 4 3 6 6 4 2 3 0 4 6 5 6 7 2 3 5 5 1 3 4 5 6 6 5 5 4 1 3 4 2 2 6 8 7 9 9 9 12 10 10 17 25 27 28 28 25 22 21
13 11 10 11 13 13 11 11 12 11 12 13 15 15 11 7 8 8 5 5 3 5 6 8 9 10 12 13 17 13 4 6 7 12 21 18 13 11 5 3 3 3 4 4 2 2 2 4 5 5 5 5 5 2 3 6 7 2 5 3 4 7 6 4 6 3 2 2 5 2 3 3 7 8 8 8 10 10 9 11 17 25 31 30 26 21 17 15
17 13 10 8 10 11 11 12 13 12 10 8 12 15 13 11 10 8 6 3 2 5 5 6 8 10 13 17 18 11 8 13 9 9 20 17 11 8 4 5 6 5 3 6 4 5 1 5 5 5 5 3 4 4 4 8 6 5 5 4 5 7 6 5 6 2 1 2 5 4 2 2 6 7 6 4 5 7 10 12 14 20 27 24 19 16 13 12
16 15 11 7 7 9 11 11 11 12 9 6 11 15 14 14 11 6 4 1 3 3 3 7 9 10 15 15 11 8 11 9 4 9 19 15 10 6 3 5 5 4 3 5 5 4 0 4 5 6 5 4 4 2 2 5 4 4 3 5 6 5 5 5 5 3 3 2 5 5 4 2 5 6 4 0 2 7 9 9 10 14 18 15 11 11 12 11
13 14 12 9 9 9 9 9 9 8 8 7 12 16 16 13 7 5 2 2 2 2 3 6 7 9 15 11 3 5 7 3 4 12 11 8 8 5 4 4 4 3 1 4 4 2 2 2 1 3 4 5 6 3 4 3 7 7 6 6 7 6 5 4 3 4 3 4 6 8 9 4 4 6 4 3 4 6 4 4 7 6 5 7 10 11 10 10
12 14 14 13 12 10 9 9 9 8 5 7 11 16 14 6 4 4 4 2 1 2 3 3 3 7 13 9 4 4 4 2 6 11 6 4 6 2 3 3 3 4 2 3 2 5 5 2 0 2 3 6 8 5 7 5 7 7 5 5 4 4 4 5 4 4 1 5 6 6 6 5 5 6 4 5 7 5 5 2 4 2 5 11 12 10 9 9
14 14 14 14 13 11 11 11 9 8 6 7 11 13 9 3 0 4 3 1 1 3 4 4 3 6 8 6 5 5 4 3 5 7 5 4 5 4 3 4 4 3 1 3 1 4 3 2 2 2 2 5 7 5 4 5 5 5 5 6 4 2 2 3 3 0 3 6 4 2 2 3 6 6 5 8 9 6 5 2 3 5 8 9 8 8 9 10
17 16 15 14 14 13 13 12 10 9 8 8 9 6 5 3 5 6 4 2 2 3 4 5 5 7 9 6 4 4 3 3 5 4 2 4 4 5 3 3 6 4 2 5 3 1 2 6 2 3 1 5 7 5 3 1 1 5 5 6 5 3 2 3 3 1 4 6 4 1 1 3 5 4 8 11 11 12 9 5 3 6 6 5 4 6 10 11
17 17 16 16 16 16 15 14 12 10 9 9 6 3 4 4 6 5 5 3 1 2 3 5 6 8 8 5 5 6 3 1 6 5 3 4 4 5 4 4 5 2 4 4 3 5 4 5 4 5 3 8 8 6 8 6 4 5 5 6 6 5 5 4 3 3 4 4 3 2 1 3 2 3 7 8 10 13 10 5 6 6 8 9 9 8 11 11
13 15 16 17 17 18 17 17 14 12 12 11 6 3 5 7 4 4 5 3 1 2 3 6 8 7 5 2 3 7 4 2 6 5 4 5 5 6 5 5 7 5 5 4 2 3 5 6 7 5 5 12 11 7 9 8 2 3 3 5 4 6 5 2 3 6 4 1 2 2 3 5 4 6 9 8 10 13 11 7 7 11 14 13 12 11 10 12
10 12 14 16 18 20 20 19 16 14 15 13 6 2 7 5 2 3 3 2 3 4 7 6 5 4 4 1 2 5 2 2 5 3 2 4 2 5 6 5 9 9 7 6 2 2 4 4 5 1 2 8 9 6 7 6 3 2 3 4 5 5 7 3 3 0 3 2 4 2 5 6 3 7 9 9 10 11 10 11 12 16 17 13 13 14 12 14
11 12 13 16 18 18 19 21 18 16 16 12 6 5 5 2 2 3 0 1 5 8 8 4 2 4 5 3 3 6 2 2 5 4 3 3 2 5 7 5 8 12 11 9 4 2 5 3 4 1 3 6 3 3 1 1 4 5 4 6 2 2 3 4 1 2 2 4 4 2 7 6 3 5 5 3 3 6 6 9 14 19 19 19 21 21 18 15
12 12 12 15 16 15 16 18 19 19 15 8 4 5 3 2 3 1 2 2 3 6 5 4 4 4 5 5 4 6 5 3 5 5 4 3 4 7 9 5 8 16 18 13 5 3 5 3 5 1 3 5 2 2 2 3 2 5 4 4 4 2 1 2 3 2 2 4 4 4 5 4 5 7 2 3 6 8 8 8 10 15 20 24 26 25 20 13
10 9 9 13 16 15 13 14 19 21 13 4 4 4 3 2 4 3 0 2 3 2 2 3 3 3 5 6 4 5 5 6 7 6 4 4 4 6 12 9 7 15 21 16 7 2 3 3 4 1 1 2 4 2 5 1 2 2 2 2 2 3 4 4 3 4 4 3 4 5 4 5 8 6 5 5 8 8 9 8 7 13 20 23 24 23 16 11
8 5 4 9 14 15 13 12 17 16 7 3 4 3 2 2 4 8 7 1 3 2 1 1 1 3 5 5 5 5 5 5 8 6 4 6 4 3 8 10 5 8 18 18 8 1 2 3 4 2 3 1 1 4 8 8 5 3 3 4 2 1 2 2 1 3 4 4 3 3 6 8 7 4 7 9 9 9 10 8 8 15 22 21 19 17 12 11
8 3 3 8 11 14 15 12 9 6 2 2 4 2 3 3 3 10 12 6 2 2 2 1 1 1 3 4 4 5 5 5 6 6 3 5 5 3 3 7 8 8 10 10 8 5 3 3 4 2 1 4 6 6 7 11 11 8 7 8 7 5 4 2 3 2 2 3 4 4 6 12 5 5 7 8 7 7 5 6 9 13 18 18 14 11 10 13
8 3 3 8 11 16 17 9 3 3 1 3 4 4 6 5 5 9 11 8 5 1 2 2 1 1 1 2 2 2 4 5 6 6 5 6 7 5 1 3 9 14 11 6 8 8 5 4 4 4 4 5 7 5 2 5 6 4 3 4 5 5 6 5 6 4 1 3 3 4 5 13 4 6 4 5 7 7 5 7 8 6 7 8 7 8 11 12
7 4 3 8 13 18 15 5 2 4 2 3 5 5 7 6 4 7 8 8 6 4 3 2 1 2 0 2 2 1 1 3 4 4 4 4 4 3 5 7 4 12 9 4 5 5 4 3 3 2 3 3 4 5 4 3 0 2 4 2 4 4 5 5 5 4 3 4 4 3 6 12 4 4 0 3 6 10 10 10 7 3 3 5 7 8 8 8
6 7 7 9 16 19 12 4 4 6 4 3 4 5 8 6 6 8 8 8 7 5 4 5 3 4 2 2 3 1 1 1 1 1 2 1 2 1 7 9 2 5 4 2 4 8 6 3 4 3 1 3 4 4 4 4 0 3 4 4 6 6 5 3 2 2 2 6 8 6 7 11 5 4 4 2 1 4 8 7 5 7 9 9 9 8 8 8
4 6 9 11 18 22 14 5 3 5 6 5 4 6 7 5 8 13 11 10 11 7 4 6 7 6 4 4 4 1 1 2 0 1 1 1 2 2 8 10 5 4 3 2 3 8 7 3 5 6 6 8 5 4 4 3 2 2 4 6 8 9 9 5 2 3 6 8 8 7 8 13 9 2 4 6 6 4 6 7 8 10 9 7 6 8 11 13
4 3 5 8 13 18 15 10 5 1 4 8 6 6 8 5 5 13 13 11 13 12 7 5 7 7 4 5 6 6 5 4 2 1 1 1 2 2 7 8 7 5 3 5 5 3 3 2 6 9 10 10 7 5 5 6 6 5 7 10 9 10 12 8 4 6 10 8 7 9 11 15 18 12 6 5 5 4 6 7 8 8 6 6 9 12 14 15
4 3 4 4 6 10 10 9 8 3 3 7 5 3 9 8 3 6 10 9 12 15 7 3 7 8 6 7 7 7 8 7 4 4 6 4 3 2 5 5 6 4 2 4 6 3 3 2 5 6 7 7 5 2 1 6 9 10 11 12 11 10 11 10 10 12 10 6 9 13 12 13 20 19 9 6 7 6 7 10 12 12 11 11 13 16 17 18
6 3 5 7 4 3 6 10 11 8 5 5 3 2 6 10 7 6 8 6 8 12 7 3 8 11 11 12 8 5 7 7 6 7 7 6 4 1 3 3 4 5 3 3 5 4 4 2 2 1 4 4 4 3 3 3 3 4 6 9 10 9 11 14 17 17 12 8 11 14 11 11 18 18 8 6 9 8 8 13 15 14 15 18 20 23 23 23
9 6 8 8 4 3 7 11 11 9 7 5 4 4 6 10 11 9 7 4 4 9 9 6 9 13 13 12 9 7 8 8 7 8 6 5 6 5 2 3 2 4 4 3 3 2 3 1 1 3 4 8 2 4 4 2 1 2 3 6 7 9 13 15 16 16 13 12 14 15 12 12 15 12 5 8 15 15 14 18 18 17 20 22 23 23 24 26
13 7 6 4 4 5 5 7 9 8 8 7 6 5 6 7 9 8 7 8 6 6 10 11 11 11 11 11 10 10 10 11 10 10 9 7 5 5 5 4 2 2 3 3 1 1 2 1 3 4 3 10 7 3 4 4 4 4 7 8 8 9 10 10 11 10 10 12 14 15 14 14 14 9 9 19 23 16 16 22 22 22 23 22 22 23 24 27
19 12 5 2 2 5 4 3 6 5 5 7 7 7 8 9 9 6 5 11 12 7 10 15 12 7 8 11 11 12 13 14 13 11 13 14 11 9 8 6 6 5 1 2 2 1 2 2 2 3 1 8 6 3 4 5 4 5 10 13 15 12 7 7 7 8 10 12 12 11 11 14 13 6 9 20 19 11 16 22 22 23 24 23 24 26 27 28
26 19 10 2 2 3 3 2 4 5 5 7 10 10 9 10 10 6 3 8 16 17 17 19 14 8 7 10 15 20 20 17 13 11 14 19 19 17 15 13 13 10 5 3 3 2 4 4 2 3 3 5 3 3 4 4 3 5 11 14 15 12 10 10 10 11 12 10 8 9 10 11 11 7 8 13 12 11 18 24 26 26 23 21 23 26 28 29
Wind_Direction
180 176 179 183 186 187 181 180 181 179 177 175 177 177 177 178 180 182 184 189 195 198 199 200 196 192 188 185 184 180 181 179 178 177 173 174 174 175 186 193 183 178 178 175 167 151 144 141 135 133 141 157 167 183 188 191 179 152 103 94 228 240 83 291 240 169 140 149 179 177 174 154 153 159 138 124 129 138 142 149 146 158 160 151 142 142 162 179
183 180 178 182 187 188 184 182 183 182 180 179 180 179 180 181 184 188 190 194 198 200 198 197 192 189 185 183 182 178 178 177 181 184 176 175 182 193 197 186 182 180 178 171 162 153 144 133 134 145 153 169 169 171 176 184 179 162 108 116 215 201 95 353 39 129 124 156 175 178 180 170 179 175 158 158 157 150 144 150 160 163 165 171 165 165 181 184
186 183 177 182 188 189 186 183 183 185 185 183 183 184 184 185 188 191 194 196 197 199 197 194 189 186 183 182 179 173 175 178 187 191 183 179 184 195 192 183 180 179 179 172 167 163 148 131 162 181 181 190 184 175 172 173 184 196 96 116 230 196 121 26 50 63 130 160 165 177 188 187 186 177 169 177 169 170 176 172 179 185 186 185 179 179 188 190
190 186 179 182 187 188 189 185 183 186 187 187 186 187 189 190 192 194 196 196 196 197 196 192 187 184 184 182 174 168 169 175 196 197 190 184 181 184 181 179 177 177 177 177 181 174 150 130 161 193 202 201 185 180 181 173 182 190 119 156 217 171 118 21 50 55 114 156 164 167 165 160 174 179 180 168 147 211 217 200 202 206 203 200 194 191 193 196
192 189 182 182 185 187 190 189 185 186 189 190 189 190 192 194 195 196 196 196 196 195 194 191 186 183 184 182 175 168 158 138 208 194 189 189 185 176 169 170 170 173 172 175 189 182 165 151 151 192 216 192 163 167 193 181 164 112 113 133 121 123 116 5 78 73 94 146 158 149 134 153 168 180 187 174 160 223 230 219 220 221 214 207 201 199 198 200
195 193 187 182 183 186 190 191 188 187 190 191 191 192 193 196 197 197 197 197 197 195 194 190 186 184 184 185 181 175 168 131 159 181 184 188 183 169 162 163 160 164 166 168 180 173 167 162 164 200 198 177 170 162 175 183 169 116 130 92 76 108 132 144 145 106 101 130 135 125 135 158 161 182 199 201 204 200 210 213 215 218 219 214 205 203 201 202
198 198 192 183 182 185 188 190 190 189 190 193 194 195 195 197 198 199 199 197 197 195 193 190 186 186 185 187 185 187 199 203 104 173 184 184 177 170 164 161 156 156 157 163 168 161 163 168 194 217 178 154 184 163 152 174 168 128 173 98 85 107 125 139 163 135 114 123 122 123 144 160 169 189 207 217 219 211 203 195 194 194 199 205 202 197 200 203
198 198 196 189 185 185 187 188 190 190 191 195 197 198 199 200 200 201 201 198 197 194 192 190 187 187 186 188 186 193 218 228 254 173 181 179 176 175 173 169 165 157 155 163 156 150 176 192 214 224 216 207 174 157 145 143 121 111 141 137 109 104 119 132 164 155 130 120 125 144 153 163 188 213 235 228 221 216 222 228 234 202 179 191 195 192 194 201
197 197 194 193 190 185 186 188 190 192 194 198 200 202 203 203 204 203 203 200 197 194 192 190 188 188 187 190 188 194 223 224 212 172 176 179 179 182 184 180 178 172 166 170 162 163 192 194 217 219 212 182 151 135 133 126 338 153 136 135 121 111 121 121 149 159 148 145 154 177 183 161 189 240 262 243 228 217 222 229 233 224 198 196 199 201 204 212
196 196 192 193 192 186 185 187 190 194 196 200 202 204 204 205 207 206 205 201 197 194 191 191 189 188 190 190 184 193 222 211 200 182 177 181 184 188 189 184 186 188 181 174 175 185 187 165 154 167 132 118 123 105 104 124 142 130 126 124 122 127 129 125 144 153 148 153 151 176 289 209 182 194 259 245 227 214 219 223 225 222 217 215 216 219 224 230
194 194 191 191 191 186 185 187 190 195 198 202 204 207 206 206 208 207 206 201 198 194 192 193 189 189 193 192 189 194 207 196 197 190 179 180 186 189 192 190 187 191 192 180 180 189 185 171 142 153 151 124 114 92 95 109 122 127 123 109 111 124 125 148 142 151 158 125 134 135 338 271 145 174 250 244 226 214 214 215 219 220 222 223 226 230 234 238
192 190 189 189 189 186 185 187 190 194 197 201 206 210 209 208 208 207 205 199 197 195 194 192 188 191 193 197 205 208 219 197 193 188 180 177 182 185 186 189 185 187 193 184 182 186 180 178 171 169 151 145 133 90 106 113 121 130 121 94 51 33 18 209 171 165 174 129 160 82 350 294 186 221 254 255 230 214 207 209 215 220 226 229 234 238 240 244
188 186 188 188 187 185 185 186 188 193 196 199 206 210 210 209 207 205 202 197 195 194 193 191 189 191 188 200 215 217 227 198 187 181 178 175 175 174 169 175 175 178 187 181 177 181 177 172 163 146 125 136 131 115 127 116 120 138 118 98 82 20 329 235 192 170 161 141 180 100 303 278 248 237 260 266 228 208 199 206 213 221 230 234 237 240 241 244
184 182 184 185 184 184 184 185 186 189 192 195 200 205 206 205 205 203 199 195 194 193 192 190 189 188 188 199 219 216 209 187 182 177 174 173 172 165 155 157 158 169 179 173 169 173 171 164 146 124 115 127 127 122 112 79 110 135 81 68 87 84 294 270 183 160 146 187 196 103 190 264 270 263 280 268 219 207 201 206 213 222 230 236 238 240 244 245
178 177 179 180 181 182 184 184 184 185 187 189 192 196 195 195 198 196 194 192 192 191 189 189 188 185 189 208 211 201 194 184 182 176 170 169 170 162 149 145 146 156 156 153 159 161 165 167 157 124 110 123 125 117 74 26 27 66 90 326 344 136 267 309 189 172 162 211 206 114 198 267 281 284 298 215 206 207 211 215 218 226 232 239 243 243 245 248
172 173 175 178 179 180 182 181 180 181 182 183 185 187 185 186 188 187 187 186 185 186 184 186 187 179 177 210 197 183 186 185 181 177 170 168 167 155 144 142 141 143 141 142 151 155 159 155 141 124 116 129 124 101 64 37 350 4 107 225 289 138 215 308 289 199 168 150 224 194 220 270 296 293 306 173 200 208 217 225 227 232 237 239 243 245 246 249
165 168 171 174 176 176 177 178 177 177 177 177 178 178 177 176 176 177 177 176 176 174 173 176 179 180 203 210 187 184 187 182 181 181 173 169 165 147 141 141 135 137 137 138 147 152 153 136 127 130 116 110 102 93 73 40 308 315 54 207 241 167 159 230 292 250 148 118 225 242 231 257 273 278 272 243 226 225 229 237 240 239 240 238 237 239 244 247
159 163 167 170 173 173 173 174 174 173 173 172 171 171 170 169 170 172 171 170 164 156 162 166 160 171 239 212 188 191 191 183 180 179 172 170 164 149 146 139 133 136 133 134 141 143 141 120 111 103 28 22 70 98 102 193 195 201 187 192 263 214 163 200 247 233 142 113 240 230 246 259 269 278 275 266 254 245 243 248 251 250 246 243 237 235 240 244
157 161 165 169 171 171 170 171 172 172 171 168 167 164 160 157 158 166 170 168 161 149 159 175 164 153 232 193 188 192 189 183 176 173 172 170 163 157 149 138 140 136 125 129 128 131 131 86 78 89 149 226 201 141 161 196 168 157 171 156 164 172 247 242 243 255 147 134 243 230 235 255 264 276 278 275 268 251 246 250 251 251 250 246 240 238 240 242
157 160 164 168 172 172 170 169 170 172 170 168 165 158 152 147 134 148 172 171 168 159 171 181 177 174 104 174 182 180 176 176 175 174 173 170 164 156 146 142 145 124 108 151 149 155 113 86 117 184 193 210 218 181 169 176 137 126 118 104 139 139 314 272 258 298 53 131 246 240 243 261 263 266 271 275 278 259 242 243 244 246 247 245 241 241 242 245
155 160 165 169 173 174 172 170 170 171 170 169 164 157 154 157 139 151 174 177 180 180 313 179 182 193 135 173 180 170 158 164 178 179 174 171 165 155 151 148 131 111 226 147 125 71 81 98 215 219 204 200 211 176 139 102 87 93 101 80 34 120 186 245 251 297 354 86 266 283 290 271 261 260 265 271 277 264 244 236 239 244 244 244 243 245 249 252
146 153 160 166 173 176 175 173 171 171 171 169 166 159 159 167 166 171 168 172 194 201 212 173 181 190 151 162 175 166 152 149 176 183 176 170 168 165 163 144 115 166 194 110 100 42 53 169 241 234 204 148 95 102 103 87 84 78 90 93 16 277 186 291 313 313 12 122 269 335 334 279 266 257 259 259 254 257 254 245 245 248 247 248 248 252 256 258
141 142 146 151 160 169 176 176 174 173 172 171 171 163 156 166 170 169 162 133 189 207 214 182 183 188 159 152 169 169 161 156 176 183 176 173 173 170 160 144 134 162 135 118 128 92 88 245 247 229 171 102 62 62 83 67 68 81 94 108 241 266 166 276 296 297 301 172 267 337 325 281 277 272 259 255 248 253 259 257 256 255 254 256 258 260 262 262
139 139 140 138 142 153 166 175 177 176 176 177 177 165 143 156 161 163 164 97 142 203 212 202 195 195 182 165 172 172 162 163 180 181 178 176 171 162 164 162 145 144 170 164 143 140 201 257 236 164 117 106 99 61 84 81 4 331 126 138 202 245 149 191 277 315 326 344 351 1 328 287 289 305 280 271 259 255 260 261 259 257 256 257 260 261 262 263
140 138 136 132 130 133 146 162 173 178 181 182 184 172 139 147 153 158 166 63 25 198 203 203 203 206 202 186 180 172 151 150 173 180 181 179 168 155 171 175 154 168 203 174 137 155 232 265 147 127 86 92 109 99 130 130 67 320 263 176 187 164 131 127 24 23 19 341 320 34 348 290 305 311 278 297 319 278 270 266 261 260 259 256 256 258 260 261
152 146 139 132 122 121 129 132 149 175 183 186 193 187 166 152 146 157 150 57 338 220 169 188 195 200 200 189 173 160 148 180 171 176 179 177 174 161 158 174 152 186 197 165 137 171 220 216 105 127 118 92 95 104 207 140 104 320 255 202 170 125 108 96 66 48 46 270 276 78 111 270 300 293 263 275 284 275 280 281 266 263 263 261 259 261 264 264
165 161 156 141 121 118 121 115 122 145 162 180 197 195 188 171 148 151 124 39 301 191 147 175 183 187 190 175 163 153 154 174 146 167 175 173 180 171 167 183 135 183 186 123 142 234 142 106 81 95 101 94 108 145 218 136 113 227 235 174 126 106 112 115 92 92 216 255 315 4 134 246 286 274 257 255 263 276 282 275 266 260 259 260 264 268 266 260
171 171 179 162 131 123 120 114 113 110 118 159 186 186 184 171 157 145 113 50 236 154 140 174 168 175 177 165 165 153 136 152 138 170 177 172 178 169 175 196 164 192 185 117 175 258 130 148 164 135 103 113 168 222 213 132 114 239 219 137 117 116 123 111 96 94 349 10 314 305 139 240 268 269 280 267 262 278 267 257 261 263 265 267 269 264 252 242
178 177 188 180 152 145 135 124 117 106 97 122 160 169 166 162 156 121 87 128 169 117 126 163 156 167 166 157 163 140 127 145 134 166 175 174 176 163 157 190 167 184 194 120 166 245 26 164 181 142 134 186 199 280 249 140 136 206 161 88 65 69 78 76 96 101 31 4 259 231 172 235 269 261 269 329 261 263 259 258 263 272 277 274 253 228 223 227
191 188 192 187 180 180 171 154 140 121 92 104 147 157 154 154 139 96 114 210 168 89 95 148 159 163 156 145 146 137 124 120 119 140 159 169 167 154 130 142 100 112 34 46 106 258 354 86 113 112 145 173 148 59 26 107 137 125 89 60 41 24 33 42 61 82 48 292 253 212 187 194 276 271 237 198 226 232 242 290 291 290 266 216 195 194 210 222
204 200 198 196 197 200 199 186 169 155 119 109 141 150 145 134 92 119 183 216 124 113 100 134 162 155 155 148 151 156 106 87 141 138 135 149 157 139 114 128 65 71 21 24 54 323 349 50 10 95 125 125 107 60 28 54 105 104 79 78 58 348 12 16 359 50 131 255 266 237 194 172 244 265 243 248 263 226 179 222 282 261 154 161 173 186 203 216
219 210 204 204 206 210 215 211 192 178 157 127 142 151 137 93 137 194 198 131 143 183 155 163 179 159 160 151 151 161 125 131 170 152 141 144 164 186 166 174 159 103 276 211 180 329 326 260 253 79 120 144 112 74 23 10 40 80 98 104 92 318 3 353 299 127 220 244 269 264 169 188 242 255 257 274 284 254 218 221 204 185 167 164 180 203 215 220
224 221 216 214 215 215 220 226 215 195 174 148 149 145 106 116 208 216 205 189 196 182 147 149 160 156 153 146 160 161 114 146 183 166 141 124 156 209 246 229 183 148 178 186 157 158 283 304 305 92 289 199 150 128 142 274 155 134 138 136 139 150 158 249 253 270 265 260 279 314 156 248 280 281 243 249 261 260 275 292 210 181 183 203 235 246 238 236
216 221 219 217 219 216 221 231 222 204 190 172 154 95 109 180 218 195 186 217 181 95 108 128 134 146 156 164 177 163 120 193 183 149 120 126 147 212 248 252 214 131 109 153 160 171 207 289 220 174 197 186 182 183 166 151 166 183 153 136 158 165 168 204 206 210 248 275 291 293 223 203 222 270 239 238 262 272 287 274 213 224 249 259 270 255 243 261
207 213 213 213 217 214 216 222 218 209 199 176 134 94 178 201 222 176 176 206 187 67 81 115 118 137 181 213 188 173 159 207 183 145 141 165 174 193 196 210 203 167 135 169 215 171 189 253 232 208 176 171 183 194 157 125 129 223 135 119 189 192 158 167 197 183 183 300 289 241 234 211 206 264 262 257 269 277 285 270 235 246 254 258 261 247 250 282
206 206 207 211 213 211 211 211 212 209 193 166 127 198 210 202 200 184 177 173 163 127 109 114 109 133 187 218 216 203 183 108 160 152 184 198 206 199 197 211 198 185 172 175 194 161 171 271 272 245 187 184 183 180 160 155 190 195 148 176 207 175 133 135 253 191 100 253 265 206 252 280 313 284 266 251 257 272 286 286 273 261 256 259 257 252 267 289
208 208 207 209 210 212 209 207 211 207 189 170 161 212 217 224 216 200 345 77 152 138 127 138 153 152 172 183 198 200 184 92 153 168 194 205 244 205 203 231 201 190 192 187 203 195 159 238 291 124 214 245 218 170 160 91 139 137 185 207 170 91 94 113 217 340 38 249 272 214 237 271 308 271 290 5 310 293 289 274 268 265 263 263 263 266 277 287
208 213 216 212 209 212 205 204 210 204 189 178 190 210 207 238 245 242 18 25 122 127 133 165 169 154 171 184 193 187 168 153 175 185 183 194 243 204 186 209 203 198 199 188 199 235 151 206 287 68 197 271 348 156 227 357 89 139 184 193 129 122 247 125 167 206 201 241 275 268 250 251 227 230 270 344 307 297 281 258 253 257 256 256 260 267 272 274
202 211 227 220 211 211 203 201 202 191 183 189 200 203 196 226 265 248 202 19 41 91 168 188 170 154 173 174 166 172 175 172 175 183 176 180 232 209 182 188 204 201 196 182 184 234 139 187 259 324 233 293 17 168 195 269 347 51 92 151 137 145 176 175 174 171 169 202 248 275 285 251 231 201 162 222 253 261 259 254 242 244 247 251 258 263 264 267
187 189 242 222 210 211 202 196 196 182 164 190 192 180 174 194 250 231 220 225 47 68 195 228 153 155 184 190 165 165 184 182 174 182 197 186 210 245 191 187 190 192 189 184 185 190 127 194 229 310 334 221 177 210 187 171 175 168 161 189 200 104 124 187 204 146 148 171 213 263 276 261 242 178 174 211 235 241 241 239 237 244 245 246 256 263 267 275
171 168 247 206 201 206 192 181 191 181 111 165 181 188 182 162 203 219 222 212 132 86 104 112 40 135 173 195 189 176 173 174 176 183 203 195 204 238 207 190 185 169 168 182 193 190 182 185 173 180 259 199 218 235 200 186 187 180 182 192 191 171 136 167 247 248 137 178 188 176 266 274 247 168 190 202 213 232 228 217 234 250 250 246 253 265 268 272
177 183 217 189 193 196 185 173 169 166 171 187 176 180 181 169 172 193 206 208 193 136 95 100 314 265 154 135 171 163 153 173 186 186 199 211 204 201 314 298 202 175 156 173 203 192 169 126 136 190 216 213 238 263 230 208 217 222 219 193 180 175 151 159 215 240 181 223 210 141 254 272 243 136 168 198 222 250 235 207 216 224 233 238 244 252 263 277
190 190 185 191 199 192 182 181 178 172 203 184 162 172 181 177 162 162 176 193 192 175 174 184 168 186 287 63 90 50 81 178 185 175 198 217 208 207 360 356 209 178 159 172 201 177 149 125 153 228 307 326 308 327 2 15 82 250 262 170 142 187 181 165 181 184 168 208 211 166 244 262 270 76 69 227 239 251 234 217 218 214 222 236 240 251 274 298
197 205 208 205 200 193 188 190 189 198 213 154 148 190 196 192 183 170 167 182 186 169 184 209 185 172 192 102 118 111 33 152 212 197 185 195 204 322 15 22 81 160 149 174 182 172 179 184 155 156 310 326 335 341 340 344 98 203 232 189 181 192 175 152 166 162 203 215 197 189 236 253 262 42 27 17 26 257 241 239 278 299 288 270 262 278 305 314
177 215 233 223 200 194 198 206 186 200 204 188 192 199 194 204 202 192 182 179 186 178 174 205 193 173 174 140 134 171 108 122 268 332 62 3 286 340 19 22 53 98 84 71 133 168 181 194 166 169 206 222 221 211 210 213 167 205 230 202 197 190 174 173 182 187 227 229 205 201 239 256 262 312 8 1 15 343 293 295 294 283 278 279 296 322 325 317
163 206 238 233 215 210 212 212 203 199 191 196 212 203 193 209 212 196 190 185 191 189 181 186 172 157 165 171 180 220 228 188 193 279 344 334 292 344 18 28 61 83 76 55 56 123 154 212 201 194 214 217 203 214 205 158 153 195 216 206 202 198 187 174 161 199 221 229 228 227 235 257 267 264 267 310 337 313 291 306 305 289 298 330 333 332 327 318
192 213 196 184 225 241 239 221 206 199 180 185 192 201 199 206 214 196 198 200 196 192 188 167 164 168 182 185 188 211 216 202 194 231 250 248 252 332 3 27 55 49 17 36 30 62 114 242 235 208 229 215 163 170 167 142 175 202 207 207 208 201 188 183 203 220 215 211 242 241 228 244 263 262 256 268 279 272 269 282 284 283 295 312 314 314 313 309
210 242 218 187 180 219 227 221 209 204 204 195 199 212 196 201 207 199 199 208 199 193 194 193 190 190 186 184 188 189 186 191 195 210 228 233 225 272 339 348 23 24 19 23 18 61 126 235 283 101 266 249 137 93 50 106 184 219 211 215 216 207 196 199 216 225 214 206 239 245 224 224 254 265 255 233 251 256 264 275 278 279 285 292 297 301 303 302
221 250 239 220 219 219 211 205 197 200 211 208 216 218 197 204 209 200 181 168 193 203 204 206 206 204 196 187 187 187 177 181 200 209 203 196 194 194 223 276 330 26 44 52 17 50 135 219 21 70 307 288 218 122 95 87 13 329 264 232 217 215 213 214 224 232 230 231 244 253 252 243 252 265 271 257 264 271 277 282 283 281 282 286 291 295 296 295
215 230 243 250 267 259 235 188 172 191 209 205 218 224 214 218 214 201 182 174 181 196 201 213 216 202 200 197 192 202 198 185 199 208 186 174 185 188 199 215 178 57 43 68 23 329 174 171 42 69 318 286 267 173 158 183 199 248 263 256 240 232 228 228 236 241 244 248 250 258 269 267 258 262 276 273 274 279 283 282 282 282 284 288 289 288 286 287
209 209 224 317 288 246 248 187 162 177 197 199 213 215 214 224 213 195 196 201 200 184 183 208 217 195 199 210 207 214 210 197 209 211 184 183 194 191 194 191 155 140 108 131 136 149 170 159 53 82 221 270 271 227 200 190 182 239 254 248 241 238 233 228 227 224 227 237 247 255 259 262 264 263 268 274 278 281 278 278 280 282 283 284 284 284 285 288
211 207 211 254 305 236 236 208 174 186 197 201 211 212 214 224 210 187 213 222 212 206 199 200 203 192 200 213 214 221 220 212 222 227 201 199 201 195 196 192 170 161 161 146 144 158 152 147 141 150 196 260 258 165 157 139 152 240 246 236 231 230 233 237 238 234 225 218 228 242 242 258 277 275 258 272 281 274 273 276 277 278 281 283 284 286 289 294